Cairo, Egypt

12:33 AM EET on January 20, 2017 (GMT +0200)
Cairo International

Weather History for HECA - December, 2012

Change the Weather History Date:

Thursday, December 20, 2012

  Actual Average Record
Temperature  
Mean Temperature 60 °F -  
Max Temperature 64 °F 65 °F 73 °F (1999)
Min Temperature 55 °F 49 °F 48 °F (1997)
Degree Days  
Heating Degree Days 6    
Growing Degree Days 10 (Base 50)    
Moisture  
Dew Point 39 °F    
Average Humidity 47    
Maximum Humidity 67    
Minimum Humidity 24    
Precipitation  
Precipitation 0.00 in 0.01 in - ()
Sea Level Pressure  
Sea Level Pressure 29.86 in    
Wind  
Wind Speed 19 mph ()    
Max Wind Speed 29 mph    
Max Gust Speed -    
Visibility 3.3 miles    
Events      
Averages and records for this station are not official NWS values.
T = Trace of Precipitation, MM = Missing Value Source: Averaged Metar Reports

Daily Weather History Graph

Daily Weather History Graph

Search for Another Location

Airport or City:

Trip Planner

Search our weather history database for the weather conditions in past years. The results will help you decide how hot, cold, wet, or windy it might be!

Date:

Astronomy

Dec. 20, 2012 Rise Set
Actual Time 6:45 AM EET 4:58 PM EET
Civil Twilight 6:19 AM EET 5:24 PM EET
Nautical Twilight 5:49 AM EET 5:54 PM EET
Astronomical Twilight 5:20 AM EET 6:23 PM EET
Moon 11:44 AM EET (12/20) No Moon Set
Length of Visible Light 11h 05m
Length of Day
10h 12m
First Quarter, 52% of the Moon is Illuminated
Dec 20
First Quarter
Dec 28
Full
Jan 5
Last Quarter
Jan 11
New
Jan 19
First Quarter

Hourly Weather History & Observations

Time (EET) Temp. Dew Point Humidity Pressure Visibility Wind Dir Wind Speed Gust Speed Precip Events Conditions
12:00 AM 62.6 °F 42.8 °F 48% 29.89 in - SW 17.3 mph - N/A   Clear
12:30 AM 62.6 °F 42.8 °F 48% 29.89 in - SW 17.3 mph - N/A   Clear
1:00 AM 62.6 °F 44.6 °F 52% 29.86 in - SW 23.0 mph - N/A   Clear
1:30 AM 60.8 °F 42.8 °F 52% 29.89 in - SW 18.4 mph - N/A   Clear
2:00 AM 60 °F 44 °F 44% 29.89 in 6 mi SW 18.4 mph - -   Partly Cloudy
2:00 AM 60.8 °F 44.6 °F 55% 29.86 in - SW 18.4 mph - N/A   Clear
2:30 AM 59.0 °F 44.6 °F 59% 29.86 in - SSW 17.3 mph - N/A   Clear
3:00 AM 59.0 °F 44.6 °F 59% 29.86 in - SSW 16.1 mph - N/A   Clear
3:30 AM 59.0 °F 44.6 °F 59% 29.83 in - SSW 19.6 mph - N/A   Clear
4:00 AM 57.2 °F 44.6 °F 63% 29.83 in - SSW 18.4 mph - N/A   Clear
4:30 AM 57.2 °F 44.6 °F 63% 29.83 in - SSW 20.7 mph - N/A   Clear
5:00 AM 57.2 °F 44.6 °F 63% 29.83 in - SSW 18.4 mph - N/A   Clear
5:30 AM 57.2 °F 44.6 °F 63% 29.83 in - SSW 20.7 mph - N/A   Clear
6:00 AM 55.4 °F 44.6 °F 67% 29.86 in - SSW 19.6 mph - N/A   Clear
6:30 AM 55.4 °F 44.6 °F 67% 29.86 in 6.2 mi SSW 19.6 mph - N/A   Mostly Cloudy
6:50 AM 55.4 °F 42.8 °F 63% 29.86 in 3.7 mi SSW 19.6 mph - N/A   Mostly Cloudy
7:00 AM 55.4 °F 42.8 °F 63% 29.86 in 3.7 mi SSW 19.6 mph - N/A   Mostly Cloudy
7:30 AM 55.4 °F 44.6 °F 67% 29.86 in 3.7 mi SSW 20.7 mph - N/A   Mostly Cloudy
8:00 AM 56 °F 45 °F 56% 29.89 in 4 mi SW 20.7 mph - -   Blowing Sand
8:00 AM 55.4 °F 44.6 °F 67% 29.89 in 3.7 mi SW 20.7 mph - N/A   Mostly Cloudy
8:30 AM 57.2 °F 44.6 °F 63% 29.89 in 3.7 mi SW 24.2 mph - N/A   Mostly Cloudy
9:00 AM 57.2 °F 44.6 °F 63% 29.89 in 3.7 mi SW 23.0 mph - N/A   Mostly Cloudy
9:30 AM 59.0 °F 44.6 °F 59% 29.89 in - SW 20.7 mph - N/A   Clear
10:00 AM 59.0 °F 39.2 °F 48% 29.89 in - SW 23.0 mph - N/A   Clear
10:30 AM 59.0 °F 39.2 °F 48% 29.89 in - SW 23.0 mph - N/A   Clear
11:00 AM 60.8 °F 41.0 °F 48% 29.86 in - WSW 13.8 mph - N/A   Clear
11:30 AM 60.8 °F 41.0 °F 48% 29.86 in - WSW 13.8 mph - N/A   Clear
12:00 PM 62.6 °F 35.6 °F 37% 29.86 in - WSW 27.6 mph - N/A   Clear
12:30 PM 62.6 °F 35.6 °F 37% 29.86 in 3.7 mi SW 26.5 mph - N/A   Unknown
1:00 PM 62.6 °F 35.6 °F 37% 29.86 in 2.5 mi SW 24.2 mph - N/A   Sand
1:30 PM 62.6 °F 35.6 °F 37% 29.86 in 2.5 mi SW 24.2 mph - N/A   Sand
2:00 PM 64 °F 36 °F 24% 29.86 in 2 mi WSW 28.8 mph - -   Blowing Sand
2:04 PM 64.4 °F 35.6 °F 34% 29.86 in 2.5 mi WSW 28.8 mph - N/A   Sand
2:30 PM 64.4 °F 35.6 °F 34% 29.86 in 2.5 mi WSW 28.8 mph - N/A   Sand
3:00 PM 64.4 °F 35.6 °F 34% 29.86 in 2.5 mi WSW 28.8 mph - N/A   Sand
3:30 PM 64.4 °F 33.8 °F 32% 29.83 in 2.5 mi WSW 25.3 mph - N/A   Sand
4:00 PM 64.4 °F 33.8 °F 32% 29.83 in 2.5 mi WSW 24.2 mph - N/A   Sand
4:30 PM 62.6 °F 33.8 °F 34% 29.83 in 2.5 mi SW 25.3 mph - N/A   Sand
5:00 PM 62.6 °F 33.8 °F 34% 29.83 in 2.5 mi WSW 23.0 mph - N/A   Sand
5:30 PM 62.6 °F 33.8 °F 34% 29.83 in 2.5 mi WSW 23.0 mph - N/A   Sand
6:00 PM 62.6 °F 35.6 °F 37% 29.83 in 2.5 mi SW 21.9 mph - N/A   Sand
6:30 PM 62.6 °F 35.6 °F 37% 29.83 in 2.5 mi SW 21.9 mph - N/A   Sand
7:00 PM 60.8 °F 35.6 °F 39% 29.86 in 2.5 mi SW 20.7 mph - N/A   Sand
7:30 PM 60.8 °F 35.6 °F 39% 29.86 in 2.5 mi SW 20.7 mph - N/A   Sand
8:00 PM 61 °F 35 °F 26% 29.88 in 4 mi SW 20.7 mph - -   Blowing Sand
8:00 PM 60.8 °F 35.6 °F 39% 29.86 in 3.7 mi SW 20.7 mph - N/A   Unknown
8:30 PM 60.8 °F 35.6 °F 39% 29.86 in 3.7 mi SW 17.3 mph - N/A   Unknown
9:00 PM 60.8 °F 35.6 °F 39% 29.89 in 3.7 mi SW 21.9 mph - N/A   Unknown
9:30 PM 60.8 °F 35.6 °F 39% 29.89 in 3.7 mi SW 21.9 mph - N/A   Unknown
10:00 PM 59.0 °F 33.8 °F 39% 29.89 in 3.7 mi SSW 15.0 mph - N/A   Unknown
10:30 PM 59.0 °F 33.8 °F 39% 29.89 in 3.7 mi SSW 15.0 mph - N/A   Unknown
11:00 PM 59.0 °F 35.6 °F 42% 29.89 in - SW 16.1 mph - N/A   Clear
11:30 PM 59.0 °F 35.6 °F 42% 29.89 in - SW 16.1 mph - N/A   Clear